Portada
METAR-TAF:

METAR-TAF

Aeroports :

Batesville, Arkansas, Estats Units d'Amèrica

latitud: 35-44N, longitud: 091-39W, altitud: 141 m

Observació

L'informe es va fer fa 48 minuts, a les 06:56 UTC
Vent 3 kt amb direcció variable
Temperatura 15°C
Humitat 94%
Pressió 1016 hPa
Visibilitat: 9.7 km
Cel cobert a una alçada de 400 ft
boirina

METAR: KBVX 240656Z AUTO VRB03KT 6SM BR OVC004 15/14 A2999 RMK AO2 RAE11B27E45 SLP155 P0001 T01500144

Hora: 02:44 (07:44 UTC)


TAF: manca

Observacions i pronòstics meteorològics de més de 4000 aeroports (METAR i TAF).

Les estacions disponibles són els punts grocs i vermells al mapa.

Posi el ratolí al punt desitjat per veure el nom de l'estació.

Feu clic per veure les observacions i els pronòstics meteorològics.

Per canviar el mapa: feu clic els botons verds amb una creu de color negre per apropar; al botó verd amb un guió per allunyar la imatge; o en les fletxes verdes per a mapes adjacents.


METAR-TAF: